#timestamp,LO_Frequency,Hit 
1502895615.3,286047002.1,N
1502895635.2,286047004.4,P
1502895655.9,286047002.8,N
1502895675.7,286047000.0,N
1502895695.6,286046998.2,N
1502895715.4,286046998.1,N
1502895735.2,286047001.1,N
1502895755.1,286046998.8,N
1502895756.0,286046998.8,N
1502895775.8,286046998.7,N
1502895795.6,286046999.2,N
1502895815.5,286046996.5,N
1502895835.3,286046999.2,N
1502895855.1,286046996.6,N
1502895875.9,286046996.9,N
1502895895.7,286046996.9,N
1502895915.5,286046997.3,N
1502895935.4,286046999.6,N
1502895955.2,286046999.5,N
1502895975.1,286046999.6,N
1502895976.0,286046999.6,N
1502895995.8,286046996.7,N
1502896015.6,286046997.0,N
1502896035.5,286046999.6,N
1502896055.3,286046996.6,N
1502896075.1,286046996.5,N
1502896095.9,286046997.0,N
1502896115.7,286046999.1,N
1502896135.5,286046998.7,N
1502896155.4,286046996.8,N
1502896175.2,286046998.2,N
1502896195.0,286046999.3,N
1502896195.9,286046999.3,N
1502896215.8,286046996.5,N
1502896235.6,286046999.4,N
1502896255.5,286046998.2,N
1502896275.3,286046998.3,N
1502896295.1,286046998.9,N
1502896315.9,286046998.7,N
1502896335.7,286046998.7,N
1502896355.5,286046998.7,P
1502896375.4,286047002.4,P
1502896395.2,286047002.3,N
1502896415.0,286046999.7,N
1502896415.9,286046999.7,N
1502896435.8,286047002.2,N
1502896455.6,286047002.4,N
1502896475.5,286046999.8,N
1502896495.3,286047002.3,N
1502896515.1,286047002.5,N
1502896535.9,286047002.5,N
1502896555.7,286047000.2,N
1502896575.5,286047002.7,N
1502896595.4,286046999.8,N
1502896615.2,286047002.2,N
1502896635.0,286047002.7,N
1502896635.9,286047002.7,N
1502896655.8,286047000.1,N
1502896675.6,286046999.9,N
1502896695.4,286046999.8,N
1502896715.3,286047002.5,N
1502896735.1,286047002.3,N
1502896755.8,286047001.8,N
1502896775.7,286047001.9,N
1502896795.5,286047002.5,N
1502896815.4,286047002.5,N
1502896835.2,286047002.6,N
1502896855.0,286047002.0,N
1502896855.9,286047002.0,N
1502896875.8,286047002.3,N
1502896895.6,286047002.8,N
1502896915.4,286047002.0,N
1502896935.3,286047002.0,N
1502896955.1,286047001.8,N
1502896975.8,286047001.7,N
1502896995.7,286047001.4,N
1502897015.5,286047003.6,P
1502897035.4,286047002.6,N
1502897055.2,286047000.9,N
1502897075.0,286047000.2,N
1502897075.9,286047000.2,N
1502897095.8,286046999.8,N
1502897115.6,286046999.8,N
1502897135.4,286046999.9,N
1502897155.3,286047000.1,N
1502897175.1,286047000.7,N
1502897195.8,286047001.9,N
1502897215.7,286047000.1,N
1502897235.5,286047002.7,N
1502897255.3,286047002.7,N
1502897275.2,286046999.7,N
1502897295.0,286047002.8,N
1502897295.9,286047002.8,N
1502897315.7,286047002.2,N
1502897335.6,286047000.4,N
1502897355.4,286047002.5,N
1502897375.3,286047000.1,N
1502897395.1,286047000.6,N
1502897396.0,286047000.6,N
1502897415.8,286046998.3,N
1502897435.7,286046999.0,N
1502897455.5,286046998.3,N
1502897475.3,286047002.3,N
1502897495.2,286047000.1,N
1502897515.0,286047000.5,N
1502897515.9,286047000.5,N
1502897535.7,286046998.3,N
1502897555.6,286046998.7,N
1502897575.4,286046998.6,N
1502897595.2,286047000.0,N
1502897615.1,286047001.0,N
1502897616.0,286047001.0,N
1502897635.8,286046998.9,N
1502897655.7,286046998.9,N
1502897675.5,286046998.6,N
1502897695.3,286047001.2,N
1502897715.2,286046998.1,N
1502897735.9,286047001.2,N
1502897755.7,286046998.4,N
1502897775.6,286047000.7,N
1502897795.4,286046998.2,N
1502897815.2,286046998.2,N
1502897835.1,286047001.2,N
1502897836.0,286047001.2,N
1502897855.8,286046998.7,N
1502897875.7,286046998.9,N
1502897895.5,286046999.4,N
1502897915.3,286046998.2,N
1502897935.2,286046998.4,N
1502897955.9,286046998.7,N
1502897975.7,286047000.9,N
1502897995.6,286047000.3,N
1502898015.4,286046998.1,N
1502898035.2,286046998.4,N
1502898055.1,286046999.4,N
1502898056.0,286046999.4,N
1502898075.8,286047001.1,N
1502898095.6,286047000.9,N
1502898115.5,286046998.7,N
1502898135.3,286046999.1,N
1502898155.2,286046999.0,N
1502898175.9,286046998.6,N
1502898195.7,286047000.6,N
1502898215.6,286047000.3,N
1502898235.4,286047000.9,N
1502898255.2,286047001.4,N
1502898275.1,286047004.2,P
1502898276.0,286047004.2,N
1502898295.8,286047003.5,N
1502898315.6,286047003.0,N
1502898335.5,286047003.7,N
1502898355.3,286047003.8,N
1502898375.2,286047001.4,N
1502898395.9,286047003.9,N
1502898415.7,286047003.1,N
1502898435.6,286047003.1,N
1502898455.4,286047005.5,P
1502898475.2,286047000.4,N
1502898495.1,286047001.0,N
1502898496.0,286047001.0,N
1502898515.8,286046998.4,N
1502898535.6,286046998.4,N
1502898555.5,286046998.9,N
1502898575.3,286047000.2,N
1502898595.1,286047000.6,N
1502898615.9,286047001.0,N
1502898635.7,286047000.9,N
1502898655.6,286047001.0,N
1502898675.4,286046998.9,N
1502898695.2,286046999.4,N
1502898715.1,286046999.2,N
1502898716.0,286046999.2,N
1502898735.8,286046999.2,N
1502898755.6,286046999.1,N
1502898775.5,286046999.3,N
1502898795.3,286046998.7,N
1502898815.1,286046999.2,N
1502898835.9,286046997.1,N
1502898855.7,286046996.7,N
1502898875.5,286046996.6,N
1502898895.4,286046999.3,N
1502898915.2,286046999.5,N
1502898935.1,286046996.6,N
1502898936.0,286046996.6,N
1502898955.8,286046997.0,N
1502898975.6,286046996.8,N
1502898995.5,286046997.4,N
1502899015.3,286046995.4,P
1502899035.1,286046996.7,N
1502899055.9,286046999.3,N
1502899075.7,286047000.7,N
1502899095.5,286046999.4,N
1502899115.4,286046999.4,N
1502899135.2,286046999.5,N
1502899155.1,286046997.4,N
1502899156.0,286046997.4,N
1502899175.8,286046997.9,N
1502899195.6,286046996.8,N
